Tracking 30685 objects as of 17-Jun-2025
HD Live streaming from Space Station
objects crossing your sky now

FLOCK 4Q 20

Track FLOCK 4Q 20 now!
10-day predictions
FLOCK 4Q 20 is classified as:


NORAD ID: 58313
Int'l Code: 2023-174BK
Perigee: 450.3 km
Apogee: 462.2 km
Inclination: 97.4 °
Period: 93.6 minutes
Semi major axis: 6827 km
RCS: Unknown
Launch date: November 11, 2023
Source: United States (US)
Launch site: AIR FORCE WESTERN TEST RANGE (AFWTR)
Your satellite tracking list
Your tracking list is empty




NASA's NSSDC Master Catalog

Two Line Element Set (TLE):
1 58313U 23174BK  25167.88322933  .00014090  00000-0  36654-3 0  9997
2 58313  97.4194 248.9570 0008709  22.9232 337.2401 15.38987503 89461
Source of the keplerian elements: AFSPC